SCP
0 0 1 1 1 1 1 1 1 1 1 2 2 2 1 1 1 1 1 0 1 1 0 1 1 1 0 0 0 0 0 0 0 0 0 0 0 0 0 0 0 0 0
0 0 1 1 1 1 1 1 1 1 1 1 2 1 1 1 1 1 0 0 1 1 1 1 1 1 0 0 0 0 0 0 0 0 0 0 0 0 0 0 0 0 0
0 1 1 1 1 1 1 1 1 1 1 1 1 1 1 1 1 1 0 0 1 1 1 1 1 1 0 0 0 0 0 0 0 0 0 0 0 0 0 0 0 0 0
1 1 1 1 1 1 1 1 1 1 1 1 1 1 1 1 1 1 1 1 1 1 1 1 1 0 0 0 0 0 0 0 0 0 0 0 0 0 0 0 0 0 0
1 1 1 1 1 1 1 1 1 1 1 1 1 1 1 1 1 1 1 1 1 2 2 1 1 0 0 0 0 0 0 0 0 0 0 0 0 0 0 0 0 0 0
1 1 1 1 1 2 1 1 1 1 1 1 1 1 1 1 1 1 1 1 1 2 2 1 1 1 0 0 0 0 0 0 0 0 0 0 0 0 0 0 0 0 0
1 1 1 1 2 2 2 1 1 1 1 1 1 1 1 1 1 1 1 1 2 2 1 1 1 1 1 0 0 0 0 0 0 0 0 0 0 0 0 0 0 0 0
1 1 1 1 2 2 1 1 1 1 1 1 1 1 1 1 1 1 1 1 1 1 1 1 1 1 1 0 0 0 0 0 0 0 0 0 0 0 0 0 0 0 0
2 1 1 1 1 1 1 1 1 1 1 1 1 1 1 1 1 1 1 1 1 1 1 0 0 1 1 1 0 0 0 0 0 0 0 0 0 0 0 0 0 0 0
1 1 1 1 1 1 1 1 1 1 1 1 1 1 1 0 0 0 1 1 1 1 1 0 0 0 0 0 0 0 0 0 0 0 0 0 0 0 0 0 0 0 0
1 1 1 1 1 1 1 1 1 1 1 1 1 1 1 0 0 0 0 0 1 1 1 1 0 0 0 0 0 0 0 0 0 0 0 0 0 0 1 1 1 0 0
1 1 1 1 1 1 0 0 0 0 1 1 1 1 1 0 0 0 0 0 0 1 1 1 1 0 0 0 0 0 0 0 0 0 0 0 0 1 1 1 1 1 1
1 1 1 1 1 0 0 0 0 0 0 0 0 0 0 0 0 0 0 0 0 0 1 1 1 0 0 0 0 0 0 0 0 0 0 0 0 1 1 1 1 1 1
1 1 1 1 0 0 0 0 0 0 0 0 0 0 0 0 0 0 0 0 0 0 0 0 0 0 0 0 0 0 0 0 0 0 0 0 0 1 1 1 1 1 1
1 1 1 1 0 0 0 0 0 0 0 0 0 0 0 0 0 0 0 0 0 0 0 0 0 0 0 0 0 0 0 0 0 0 0 0 0 0 1 1 1 1 1
0 1 1 1 0 0 0 0 0 0 0 0 0 0 0 0 0 0 0 0 0 0 0 0 0 0 0 0 0 0 0 0 0 0 0 0 0 0 1 1 1 1 1
0 0 1 1 1 1 0 0 0 0 0 0 0 0 0 0 0 0 0 0 0 0 0 0 0 0 0 0 0 0 0 0 0 0 0 0 0 0 0 1 1 1 1
0 0 0 1 1 1 1 0 0 0 0 0 0 0 0 0 0 0 0 0 0 0 0 0 0 0 0 0 0 0 0 0 0 0 0 0 0 0 0 0 1 1 1
0 0 0 0 1 1 1 0 0 0 0 0 0 0 0 0 0 0 0 0 0 0 0 0 0 0 0 0 0 0 0 0 0 0 0 0 0 0 0 0 0 1 1
0 0 0 0 1 1 1 0 0 0 0 0 0 0 0 0 0 0 0 0 0 0 0 0 0 0 0 0 0 0 0 0 0 0 0 0 0 0 0 0 0 0 0
0 0 0 0 1 1 1 0 0 0 0 0 0 0 0 0 0 0 0 0 0 0 0 0 0 0 0 0 0 0 0 0 0 0 0 0 0 0 0 0 0 0 0
0 0 0 0 0 1 1 0 0 0 0 0 0 0 0 0 0 0 0 0 0 0 0 0 0 0 0 0 0 0 0 0 0 0 0 0 0 0 0 0 0 0 0
0 0 0 0 0 1 1 1 0 0 0 0 0 0 0 0 0 0 0 0 0 0 0 0 0 0 0 0 0 0 0 0 0 0 0 0 0 0 0 0 0 0 0
0 0 0 0 0 0 1 1 0 0 0 0 0 0 0 0 0 0 0 0 0 0 0 0 0 0 0 0 0 0 0 0 0 0 0 0 0 0 0 0 0 0 0
0 0 0 0 0 0 1 1 0 0 0 0 0 0 0 0 0 0 0 0 0 0 0 0 0 0 0 0 0 0 0 0 0 0 0 0 0 0 0 0 0 0 0
0 0 0 0 0 0 0 0 0 0 0 0 0 0 0 0 0 0 0 0 0 0 0 0 0 0 0 0 0 0 0 0 0 0 0 0 0 0 0 0 0 0 0
Wind_Speed
0 1 2 4 6 7 8 9 9 8 8 9 9 9 9 9 9 9 9 9 9 9 10 10 10 10 11 10 10 11 10 10 10 10 10 10 10 10 10 10 9 6 10
2 2 3 4 6 7 8 8 8 8 8 8 8 9 9 8 8 8 8 8 8 8 9 9 10 10 10 10 10 10 10 10 10 10 9 9 9 9 10 10 9 6 10
4 2 3 4 6 7 7 8 7 7 7 8 8 8 8 8 7 7 8 7 7 8 8 9 9 9 9 9 9 9 9 10 9 9 8 4 5 8 9 9 9 9 9
4 3 3 4 6 7 7 7 7 7 7 7 7 7 8 7 7 7 7 7 7 7 8 8 8 8 8 8 8 8 9 9 9 8 5 4 3 7 8 9 9 9 9
4 3 3 5 6 6 7 7 7 6 6 6 7 7 7 7 7 7 7 7 7 7 7 8 8 8 8 8 8 8 9 9 10 7 4 3 3 6 8 8 9 8 8
4 3 3 5 5 6 6 6 6 6 6 6 7 7 7 7 7 7 7 7 7 7 7 7 7 8 8 8 8 9 9 9 8 4 3 3 2 5 7 8 7 7 7
3 3 3 5 5 5 5 6 6 5 5 6 6 6 7 7 6 6 6 6 7 7 7 7 7 7 7 8 8 8 8 8 5 4 3 3 3 6 7 7 7 7 6
4 3 3 5 5 4 4 4 4 5 5 5 6 6 6 6 6 6 5 6 6 7 7 7 7 7 7 7 7 7 8 7 5 4 3 2 4 5 6 7 6 6 6
4 4 4 3 4 4 4 4 3 4 4 4 5 5 5 6 6 5 5 5 6 6 7 7 6 6 6 6 7 7 7 7 4 3 3 2 4 5 5 6 6 6 6
4 4 4 4 4 3 3 4 4 4 4 4 4 4 5 5 5 5 4 5 6 6 6 6 6 5 5 6 6 6 6 5 3 3 2 2 4 4 4 5 5 5 5
4 4 3 3 3 3 2 3 3 3 3 3 3 3 3 2 2 3 4 5 5 6 6 6 6 6 5 5 5 5 4 2 2 2 1 3 3 3 3 4 4 4 4
2 2 2 2 2 2 2 2 2 2 2 2 1 1 1 2 2 3 4 4 4 5 5 5 5 5 4 2 3 3 1 2 2 1 1 4 3 3 3 3 3 3 3
1 1 1 1 1 1 1 1 1 1 1 1 1 1 1 2 1 2 1 2 2 3 2 3 3 2 2 1 1 1 1 1 1 1 1 3 4 3 2 2 2 2 2
1 1 1 1 1 1 1 1 1 1 1 1 1 1 1 1 1 1 1 1 1 1 1 1 1 1 1 1 1 1 1 1 0 0 1 2 3 3 2 1 2 2 2
1 0 0 1 1 1 1 0 1 1 0 1 0 1 1 1 1 1 1 1 1 1 1 1 1 1 1 1 1 1 1 1 0 0 1 2 2 2 3 2 1 1 1
0 0 0 1 1 1 1 0 1 0 0 0 0 1 1 1 1 1 1 1 1 1 1 1 1 1 0 0 0 0 0 0 0 0 0 1 2 2 3 3 2 1 1
1 0 0 1 1 1 1 1 1 1 1 0 0 0 0 0 0 1 1 1 1 1 1 1 1 1 0 0 1 1 0 0 1 1 1 1 1 2 3 3 3 2 2
1 0 0 1 1 1 1 1 1 1 1 0 0 1 1 0 0 0 1 1 1 1 1 1 1 0 1 0 1 1 0 0 1 1 1 0 0 1 2 3 4 3 2
2 2 0 1 1 0 0 1 1 1 1 0 0 1 1 1 0 0 1 0 1 1 1 1 0 1 1 1 1 1 1 1 1 1 1 1 0 1 1 2 3 4 3
2 2 1 0 1 0 1 1 1 1 1 0 0 0 1 1 1 0 0 0 1 1 1 1 1 1 1 1 1 1 1 1 1 1 1 1 1 1 1 1 1 2 4
1 1 1 0 0 1 0 0 0 0 0 0 0 1 1 1 1 0 0 0 0 1 1 1 1 1 1 0 1 1 2 1 1 1 1 1 1 1 1 1 1 1 2
1 1 1 1 1 1 1 1 0 0 0 0 1 0 1 1 1 1 0 1 1 1 1 1 1 1 1 0 1 0 1 2 2 2 1 1 2 1 1 1 1 1 1
1 1 1 1 1 1 1 1 2 2 1 1 1 1 1 1 1 1 1 1 1 1 1 2 2 2 2 2 1 2 2 3 2 2 2 2 2 2 2 1 2 1 1
2 1 1 1 0 0 1 1 2 1 0 1 1 1 2 1 1 1 1 1 1 1 2 2 2 2 3 2 1 1 2 2 2 2 2 2 2 3 3 2 2 2 2
2 1 1 1 0 1 1 1 1 1 1 1 1 1 1 2 2 1 1 1 1 1 2 2 2 2 2 3 2 2 2 1 1 2 3 2 2 3 3 3 2 2 2
1 1 1 1 0 0 0 1 1 1 1 1 1 1 1 2 2 2 2 1 2 2 2 2 2 2 2 2 2 2 2 2 2 2 3 3 3 3 2 2 2 2 2
Wind_Direction
239 220 144 120 112 110 109 102 97 95 93 90 87 85 89 93 94 91 88 85 83 82 80 78 76 74 71 68 67 67 67 69 66 62 62 67 69 71 72 68 65 64 71
146 163 128 119 112 108 109 104 99 96 93 92 90 88 87 90 93 93 90 88 85 83 82 80 79 76 72 70 68 66 65 66 64 62 60 61 65 68 72 70 68 69 70
115 127 123 113 110 105 104 105 101 99 96 93 92 90 90 88 90 94 94 92 89 86 86 83 80 77 73 69 66 63 63 61 62 62 57 46 59 69 72 73 70 68 69
116 116 120 99 104 104 101 103 106 102 99 96 95 93 90 88 87 89 95 94 91 90 91 86 81 77 73 69 66 64 64 61 63 62 52 40 46 69 70 71 71 65 64
97 92 105 99 103 104 103 101 106 108 103 100 96 92 86 84 84 85 89 93 91 90 89 87 81 78 74 69 67 68 65 64 59 57 53 45 42 67 67 67 68 63 60
89 83 89 90 99 106 106 105 101 107 107 101 96 92 85 83 82 86 89 91 92 91 90 88 85 80 75 70 68 67 65 63 57 47 46 44 41 66 70 69 68 64 61
78 66 78 80 83 88 105 108 105 102 106 104 97 93 88 83 83 86 93 93 91 92 93 91 88 84 79 73 68 65 64 61 57 46 39 42 50 67 72 70 68 65 65
84 72 69 63 62 65 79 105 107 106 104 108 101 95 91 85 82 83 89 96 94 92 95 96 91 87 83 76 72 68 61 58 56 50 35 37 55 66 73 72 68 68 68
72 65 52 51 49 47 52 58 88 98 96 94 101 98 91 85 82 79 87 96 95 93 91 91 90 86 82 77 74 69 62 56 51 43 36 24 53 66 71 73 68 69 69
62 59 51 39 39 34 28 41 52 79 89 85 88 90 87 87 82 78 78 95 98 95 92 89 84 80 75 75 72 63 58 53 50 43 27 32 50 62 71 75 73 71 70
43 43 48 41 36 31 34 33 40 62 74 83 88 90 88 87 87 78 68 83 96 95 91 89 83 75 66 65 64 58 54 53 55 44 25 37 54 56 64 71 75 77 73
37 30 37 46 42 35 36 38 30 43 54 56 63 80 86 84 83 81 77 76 81 86 86 84 75 67 54 43 47 49 50 55 57 37 25 35 48 50 53 63 66 73 75
142 56 34 44 51 48 43 46 41 33 43 50 48 53 82 92 82 77 77 74 80 80 72 65 54 52 55 41 50 57 59 55 53 17 20 32 36 37 39 47 55 60 70
119 125 41 60 65 35 52 83 91 65 57 55 34 55 81 110 105 108 95 83 83 87 95 76 61 49 56 46 44 62 56 70 81 9 360 28 26 27 22 19 36 40 56
113 78 27 72 95 82 76 63 86 72 93 111 74 61 70 107 138 135 133 122 123 112 126 122 111 70 46 34 37 59 49 74 122 69 340 12 17 13 2 336 345 356 34
245 241 23 65 77 95 113 127 126 125 72 127 129 70 91 105 133 149 153 156 162 165 173 166 175 151 174 169 129 131 118 121 170 197 321 334 346 346 341 335 302 311 302
228 252 93 120 61 79 98 91 89 88 86 100 97 89 106 123 150 148 163 174 186 179 168 150 153 155 155 227 203 203 189 209 209 211 257 289 315 335 341 334 323 310 299
183 142 28 69 59 69 85 75 73 80 88 71 31 58 42 30 117 151 179 201 193 160 159 159 148 158 187 228 237 248 251 245 233 225 242 281 323 326 325 334 337 331 318
187 166 128 89 96 72 71 83 76 83 78 24 42 26 355 15 360 186 211 218 175 157 170 195 195 190 208 244 254 249 246 234 235 235 236 254 274 308 312 323 334 330 321
178 156 131 104 83 70 76 59 50 52 30 6 44 360 357 348 6 326 215 201 154 161 187 194 216 241 222 219 274 309 290 253 239 219 225 251 258 272 281 303 317 318 317
114 137 139 112 101 93 94 140 129 288 288 326 316 351 339 340 351 336 324 185 169 195 207 194 217 228 257 112 69 331 322 297 256 240 226 232 252 253 244 260 291 307 307
164 174 174 200 171 164 190 198 204 235 264 321 346 339 340 336 313 291 281 231 230 221 221 207 185 202 257 176 149 154 305 310 293 269 243 236 249 247 247 249 248 275 301
185 208 205 225 212 180 125 68 43 41 29 25 353 323 325 316 296 296 270 246 245 215 221 237 217 200 212 234 196 180 196 237 289 288 260 252 249 238 239 243 239 248 271
206 208 199 202 40 110 127 122 119 128 231 254 272 287 301 306 301 294 276 250 241 247 241 242 251 248 205 216 242 244 230 191 202 279 293 274 257 244 238 247 245 249 260
195 186 184 143 68 52 130 161 168 226 280 316 320 296 299 305 302 300 281 256 248 252 251 255 259 264 238 221 216 219 232 248 215 220 264 281 286 257 240 232 226 232 242
161 151 136 120 40 9 157 183 202 237 282 308 290 260 279 297 295 307 304 275 254 250 245 255 254 258 266 257 244 221 203 202 209 212 237 256 263 269 257 237 230 231 234